| time (UTC) | temp C | wind direction | speed KPH | gust KPH | rain 1hr cm | rain 24hr cm | rain mn cm | humidity % | barometer mb |
| 20260505124538 | 1 | 316 | 4.8 | 9.7 | 0.03 | 0.46 | 0.20 | 93 | 1014.4 |
| 20260505123036 | 1 | 301 | 3.2 | 8.0 | 0.03 | 0.46 | 0.20 | 93 | 1014.2 |
| 20260505121537 | 1 | 317 | 6.4 | 11.3 | 0.08 | 0.46 | 0.20 | 93 | 1014.3 |
| 20260505120032 | 1 | 344 | 4.8 | 11.3 | 0.08 | 0.46 | 0.20 | 93 | 1014.1 |
| 20260505114538 | 1 | 350 | 6.4 | 20.9 | 0.08 | 0.43 | 0.18 | 93 | 1013.9 |
| 20260505113028 | 2 | 328 | 6.4 | 11.3 | 0.08 | 0.43 | 0.18 | 92 | 1013.9 |
| 20260505111526 | 2 | 333 | 4.8 | 19.3 | 0.05 | 0.38 | 0.13 | 92 | 1013.7 |
| 20260505101512 | 3 | 347 | 8.0 | 20.9 | 0.08 | 0.33 | 0.08 | 93 | 1012.9 |
| 20260505100010 | 4 | 331 | 9.7 | 19.3 | 0.05 | 0.30 | 0.05 | 93 | 1012.6 |
| 20260505094507 | 4 | 345 | 11.3 | 20.9 | 0.05 | 0.30 | 0.05 | 92 | 1012.5 |
| 20260505093005 | 5 | 340 | 8.0 | 19.3 | 0.00 | 0.25 | 0.00 | 92 | 1012.4 |
| 20260505091501 | 5 | 321 | 8.0 | 17.7 | 0.00 | 0.25 | 0.00 | 92 | 1012.5 |
| 20260505084558 | 5 | 320 | 4.8 | 17.7 | 0.00 | 0.25 | 0.00 | 91 | 1012.4 |
| 20260505083056 | 6 | 360 | 4.8 | 14.5 | 0.00 | 0.25 | 0.00 | 91 | 1012.4 |
| 20260505081559 | 7 | 335 | 4.8 | 14.5 | 0.00 | 0.25 | 0.00 | 91 | 1012.4 |
| 20260505080049 | 7 | 304 | 3.2 | 8.0 | 0.00 | 0.25 | 0.00 | 92 | 1012.3 |
| 20260505074604 | 7 | 242 | 0.0 | 0.0 | 0.00 | 0.25 | 0.00 | 92 | 1012.2 |
| 20260505073049 | 7 | 242 | 0.0 | 0.0 | 0.00 | 0.25 | 0.00 | 91 | 1012.2 |
| 20260505071543 | 7 | 242 | 0.0 | 0.0 | 0.00 | 0.25 | 0.00 | 91 | 1012.1 |
| 20260505070045 | 7 | 242 | 0.0 | 3.2 | 0.00 | 0.25 | 0.00 | 91 | 1012.1 |
| 20260505064542 | 7 | 242 | 0.0 | 3.2 | 0.00 | 0.25 | 0.00 | 91 | 1012.1 |
| 20260505063044 | 7 | 242 | 0.0 | 1.6 | 0.00 | 0.25 | 0.00 | 91 | 1012.2 |
| 20260505061601 | 7 | 242 | 0.0 | 0.0 | 0.00 | 0.25 | 0.00 | 91 | 1012.2 |
| 20260505060042 | 7 | 242 | 0.0 | 3.2 | 0.00 | 0.25 | 0.00 | 91 | 1012.2 |
| 20260505054545 | 7 | 242 | 1.6 | 6.4 | 0.00 | 0.25 | 0.25 | 91 | 1012.4 |
| 20260505053036 | 7 | 242 | 1.6 | 4.8 | 0.00 | 0.25 | 0.25 | 91 | 1012.1 |
| 20260505051536 | 7 | 242 | 1.6 | 4.8 | 0.00 | 0.25 | 0.25 | 90 | 1012.0 |
| 20260505041529 | 7 | 242 | 1.6 | 8.0 | 0.10 | 0.23 | 0.23 | 88 | 1012.6 |
| 20260505040046 | 8 | 248 | 0.0 | 6.4 | 0.13 | 0.20 | 0.20 | 88 | 1012.6 |
| 20260505034546 | 8 | 248 | 0.0 | 8.0 | 0.15 | 0.18 | 0.18 | 86 | 1012.5 |
| 20260505033050 | 8 | 240 | 3.2 | 12.9 | 0.13 | 0.15 | 0.15 | 85 | 1012.7 |
| 20260505031541 | 8 | 267 | 8.0 | 16.1 | 0.10 | 0.13 | 0.13 | 83 | 1012.4 |
| 20260505030036 | 9 | 275 | 8.0 | 20.9 | 0.05 | 0.08 | 0.08 | 80 | 1012.1 |
| 20260505024556 | 10 | 292 | 4.8 | 11.3 | 0.00 | 0.03 | 0.03 | 73 | 1011.7 |
| 20260505023038 | 10 | 311 | 6.4 | 11.3 | 0.00 | 0.03 | 0.03 | 69 | 1011.5 |
| 20260505021545 | 10 | 335 | 6.4 | 12.9 | 0.00 | 0.03 | 0.03 | 70 | 1011.3 |
| 20260505020050 | 11 | 333 | 6.4 | 17.7 | 0.00 | 0.03 | 0.03 | 68 | 1011.5 |
| 20260505014547 | 12 | 319 | 9.7 | 19.3 | 0.00 | 0.03 | 0.03 | 60 | 1011.4 |
| 20260505013047 | 13 | 329 | 3.2 | 9.7 | 0.00 | 0.03 | 0.03 | 55 | 1011.0 |
| 20260505011553 | 13 | 239 | 3.2 | 6.4 | 0.00 | 0.03 | 0.03 | 55 | 1011.1 |
| 20260505010039 | 13 | 238 | 1.6 | 4.8 | 0.00 | 0.03 | 0.03 | 51 | 1010.9 |
| 20260505004543 | 13 | 238 | 1.6 | 8.0 | 0.00 | 0.03 | 0.03 | 47 | 1010.8 |
| 20260505003038 | 14 | 265 | 1.6 | 4.8 | 0.00 | 0.03 | 0.03 | 48 | 1010.9 |
| 20260505001537 | 15 | 264 | 3.2 | 9.7 | 0.00 | 0.03 | 0.03 | 45 | 1010.6 |
| 20260505000030 | 15 | 325 | 3.2 | 12.9 | 0.00 | 0.03 | 0.03 | 43 | 1010.4 |
| 20260504234529 | 15 | 284 | 4.8 | 9.7 | 0.00 | 0.03 | 0.03 | 43 | 1010.4 |
| 20260504233029 | 15 | 319 | 6.4 | 16.1 | 0.00 | 0.03 | 0.03 | 42 | 1010.2 |
| 20260504231529 | 15 | 323 | 8.0 | 17.7 | 0.00 | 0.03 | 0.03 | 43 | 1010.3 |
| 20260504230043 | 15 | 293 | 8.0 | 17.7 | 0.00 | 0.03 | 0.03 | 42 | 1010.2 |
| 20260504224539 | 15 | 320 | 8.0 | 20.9 | 0.00 | 0.03 | 0.03 | 42 | 1010.2 |
| 20260504223041 | 15 | 325 | 6.4 | 19.3 | 0.00 | 0.03 | 0.03 | 45 | 1010.3 |
| 20260504221546 | 15 | 292 | 6.4 | 16.1 | 0.00 | 0.03 | 0.03 | 40 | 1010.1 |
| 20260504220051 | 16 | 355 | 12.9 | 27.4 | 0.00 | 0.03 | 0.03 | 39 | 1009.7 |
| 20260504214536 | 16 | 5 | 14.5 | 32.2 | 0.00 | 0.03 | 0.03 | 35 | 1009.3 |
| 20260504213034 | 17 | 360 | 14.5 | 27.4 | 0.00 | 0.03 | 0.03 | 35 | 1009.3 |
| 20260504211533 | 19 | 49 | 4.8 | 11.3 | 0.00 | 0.03 | 0.03 | 27 | 1009.2 |
| 20260504210028 | 18 | 105 | 3.2 | 9.7 | 0.00 | 0.03 | 0.03 | 29 | 1009.2 |
| 20260504204536 | 17 | 188 | 1.6 | 4.8 | 0.00 | 0.03 | 0.03 | 36 | 1009.4 |
| 20260504203027 | 16 | 188 | 3.2 | 11.3 | 0.03 | 0.03 | 0.03 | 38 | 1009.7 |
| 20260504201527 | 16 | 126 | 3.2 | 11.3 | 0.03 | 0.03 | 0.03 | 39 | 1009.8 |
| 20260504200043 | 15 | 111 | 9.7 | 20.9 | 0.03 | 0.03 | 0.03 | 43 | 1009.9 |
| 20260504194543 | 14 | 193 | 6.4 | 16.1 | 0.03 | 0.03 | 0.03 | 43 | 1010.8 |
| 20260504193037 | 16 | 188 | 9.7 | 20.9 | 0.00 | 0.00 | 0.00 | 36 | 1010.3 |
| 20260504191540 | 18 | 167 | 9.7 | 12.9 | 0.00 | 0.00 | 0.00 | 24 | 1009.5 |
| 20260504190049 | 20 | 261 | 4.8 | 12.9 | 0.00 | 0.00 | 0.00 | 21 | 1009.2 |
| 20260504184556 | 20 | 28 | 1.6 | 12.9 | 0.00 | 0.00 | 0.00 | 20 | 1009.1 |
| 20260504183047 | 20 | 335 | 8.0 | 17.7 | 0.00 | 0.00 | 0.00 | 22 | 1009.2 |
| 20260504181547 | 20 | 320 | 8.0 | 19.3 | 0.00 | 0.00 | 0.00 | 22 | 1009.3 |
| 20260504180021 | 20 | 349 | 6.4 | 17.7 | 0.00 | 0.00 | 0.00 | 24 | 1009.5 |
| 20260504174519 | 20 | 267 | 8.0 | 22.5 | 0.00 | 0.00 | 0.00 | 23 | 1009.7 |
| 20260504173016 | 20 | 302 | 11.3 | 24.1 | 0.00 | 0.00 | 0.00 | 23 | 1010.0 |
| 20260504171513 | 20 | 282 | 14.5 | 22.5 | 0.00 | 0.00 | 0.00 | 25 | 1010.1 |